timestamp,surface_pressure_avg,surface_temp_avg,battery_voltage,lat,long
2018-04-05 00:00:00+00:00,292.8347,1.3,12.49,47.84626,-54.09684
2018-04-05 00:10:00+00:00,304.588,1.3,12.49,47.84626,-54.09684
2018-04-05 00:20:00+00:00,318.1796,1.3,12.57,47.84626,-54.09684
2018-04-05 00:30:00+00:00,318.5863,1.3,12.57,47.84626,-54.09684
2018-04-05 00:40:00+00:00,323.8513,1.3,12.57,47.84626,-54.09684
2018-04-05 00:50:00+00:00,334.6146,1.3,12.57,47.84626,-54.09684
2018-04-05 01:00:00+00:00,341.7396,1.29,12.49,47.84626,-54.09684
2018-04-05 01:10:00+00:00,345.1996,1.3,12.49,47.84626,-54.09684
2018-04-05 01:20:00+00:00,349.2345,1.3,12.57,47.84626,-54.09684
2018-04-05 01:30:00+00:00,352.6796,1.3,12.57,47.84626,-54.09684
2018-04-05 01:40:00+00:00,356.3079,1.3,12.57,47.84626,-54.09684
2018-04-05 01:50:00+00:00,362.008,1.3,12.57,47.84626,-54.09684
2018-04-05 02:00:00+00:00,364.3578,1.3,12.49,47.84626,-54.09684
2018-04-05 02:10:00+00:00,368.3663,1.3,12.49,47.84626,-54.09684
2018-04-05 02:20:00+00:00,365.3863,1.23,12.57,47.84626,-54.09684
2018-04-05 02:30:00+00:00,374.503,1.21,12.57,47.84626,-54.09684
2018-04-05 02:40:00+00:00,378.1079,1.21,12.57,47.84626,-54.09684
2018-04-05 02:50:00+00:00,369.9612,1.2,12.57,47.84626,-54.09684
2018-04-05 03:00:00+00:00,372.063,1.2,12.49,47.84626,-54.09684
2018-04-05 03:10:00+00:00,374.6696,1.2,12.49,47.84626,-54.09684
2018-04-05 03:20:00+00:00,368.848,1.2,12.57,47.84626,-54.09684
2018-04-05 03:30:00+00:00,356.0463,1.19,12.57,47.84626,-54.09684
2018-04-05 03:40:00+00:00,355.1246,1.11,12.57,47.84626,-54.09684
2018-04-05 03:50:00+00:00,360.213,1.1,12.57,47.84626,-54.09684
2018-04-05 04:00:00+00:00,350.943,1.1,12.49,47.84626,-54.09684
2018-04-05 04:10:00+00:00,350.9912,1.1,12.49,47.84626,-54.09684
2018-04-05 04:20:00+00:00,349.2029,1.1,12.57,47.84626,-54.09684
2018-04-05 04:30:00+00:00,340.5197,1.1,12.49,47.84626,-54.09684
2018-04-05 04:40:00+00:00,333.8947,1.1,12.57,47.84626,-54.09684
2018-04-05 04:50:00+00:00,330.148,1.1,12.57,47.84626,-54.09684
2018-04-05 05:00:00+00:00,324.7113,1.1,12.49,47.84626,-54.09684
2018-04-05 05:10:00+00:00,314.3264,1.1,12.49,47.84626,-54.09684
2018-04-05 05:20:00+00:00,306.1613,1.1,12.57,47.84626,-54.09684
2018-04-05 05:30:00+00:00,295.268,1.1,12.49,47.84626,-54.09684
2018-04-05 05:40:00+00:00,286.6364,1.1,12.57,47.84626,-54.09684
2018-04-05 05:50:00+00:00,283.4597,1.1,12.57,47.84626,-54.09684
2018-04-05 06:00:00+00:00,281.7047,1.1,12.49,47.84626,-54.09684
2018-04-05 06:10:00+00:00,272.9831,1.1,12.49,47.84626,-54.09684
2018-04-05 06:20:00+00:00,263.5964,1.1,12.57,47.84626,-54.09684
2018-04-05 06:30:00+00:00,262.7697,1.1,12.49,47.84626,-54.09684
2018-04-05 06:40:00+00:00,256.3381,1.1,12.57,47.84626,-54.09684
2018-04-05 06:50:00+00:00,240.9964,1.1,12.57,47.84626,-54.09684
2018-04-05 07:00:00+00:00,231.0364,1.1,12.49,47.84626,-54.09684
2018-04-05 07:10:00+00:00,231.4114,1.1,12.49,47.84626,-54.09684
2018-04-05 07:20:00+00:00,227.1964,1.1,12.57,47.84626,-54.09684
2018-04-05 07:30:00+00:00,211.1015,1.1,12.49,47.84626,-54.09684
2018-04-05 07:40:00+00:00,203.2982,1.1,12.57,47.84626,-54.09684
2018-04-05 07:50:00+00:00,207.5448,1.1,12.57,47.84626,-54.09684
2018-04-05 08:00:00+00:00,204.2698,1.1,12.49,47.84626,-54.09684
2018-04-05 08:10:00+00:00,194.2315,1.1,12.49,47.84626,-54.09684
2018-04-05 08:20:00+00:00,194.7365,1.1,12.49,47.84626,-54.09684
2018-04-05 08:30:00+00:00,199.0631,1.1,12.49,47.84626,-54.09684
2018-04-05 08:40:00+00:00,197.4348,1.1,12.57,47.84626,-54.09684
2018-04-05 08:50:00+00:00,197.3515,1.1,12.57,47.84626,-54.09684
2018-04-05 09:00:00+00:00,200.8498,1.1,12.49,47.84626,-54.09684
2018-04-05 09:10:00+00:00,201.7031,1.1,12.49,47.84626,-54.09684
2018-04-05 09:20:00+00:00,201.3181,1.1,12.49,47.84626,-54.09684
2018-04-05 09:30:00+00:00,207.1032,1.1,12.49,47.84626,-54.09684
2018-04-05 09:40:00+00:00,214.7614,1.1,12.57,47.84626,-54.09684
2018-04-05 09:50:00+00:00,215.5731,1.1,12.57,47.84626,-54.09684
2018-04-05 10:00:00+00:00,223.7164,1.1,12.49,47.84626,-54.09684
2018-04-05 10:10:00+00:00,234.7931,1.1,12.49,47.84626,-54.09684
2018-04-05 10:20:00+00:00,236.1948,1.1,12.49,47.84626,-54.09684
2018-04-05 10:30:00+00:00,235.0364,1.1,12.49,47.84626,-54.09684
2018-04-05 10:40:00+00:00,238.5231,1.1,12.57,47.84626,-54.09684
2018-04-05 10:50:00+00:00,245.6764,1.1,12.57,47.84626,-54.09684
2018-04-05 11:00:00+00:00,244.6198,1.1,12.49,47.84626,-54.09684
2018-04-05 11:10:00+00:00,245.2631,1.1,12.49,47.84626,-54.09684
2018-04-05 11:20:00+00:00,249.9431,1.11,12.57,47.84626,-54.09684
2018-04-05 11:30:00+00:00,256.3365,1.14,12.49,47.84626,-54.09684
2018-04-05 11:40:00+00:00,255.5298,1.14,12.57,47.84626,-54.09684
2018-04-05 11:50:00+00:00,258.103,1.13,12.57,47.84626,-54.09684
2018-04-05 12:00:00+00:00,259.2614,1.14,12.49,47.84626,-54.09684
2018-04-05 12:10:00+00:00,269.4797,1.14,12.49,47.84626,-54.09684
2018-04-05 12:20:00+00:00,282.0848,1.14,12.57,47.84626,-54.09684
2018-04-05 12:30:00+00:00,295.1348,1.16,12.57,47.84626,-54.09684
2018-04-05 12:40:00+00:00,293.3697,1.19,12.57,47.84626,-54.09684
2018-04-05 12:50:00+00:00,296.9597,1.19,12.57,47.84626,-54.09684
2018-04-05 13:00:00+00:00,309.9863,1.19,12.49,47.84626,-54.09684
2018-04-05 13:10:00+00:00,324.7963,1.2,12.49,47.84626,-54.09684
2018-04-05 13:20:00+00:00,319.723,1.19,12.57,47.84626,-54.09684
2018-04-05 13:30:00+00:00,318.6013,1.19,12.49,47.84626,-54.09684
2018-04-05 13:40:00+00:00,330.8663,1.19,12.57,47.84626,-54.09684
2018-04-05 13:50:00+00:00,336.6763,1.2,12.57,47.84626,-54.09684
2018-04-05 14:00:00+00:00,327.9797,1.2,12.49,47.84626,-54.09684
2018-04-05 14:10:00+00:00,333.1196,1.2,12.49,47.84626,-54.09684
2018-04-05 14:20:00+00:00,340.8563,1.2,12.57,47.84626,-54.09684
2018-04-05 14:30:00+00:00,329.9614,1.2,12.49,47.84626,-54.09684
2018-04-05 14:40:00+00:00,326.6197,1.2,12.57,47.84626,-54.09684
2018-04-05 14:50:00+00:00,340.4596,1.2,12.57,47.84626,-54.09684
2018-04-05 15:00:00+00:00,342.2697,1.2,12.49,47.84626,-54.09684
2018-04-05 15:10:00+00:00,320.4314,1.2,12.49,47.84626,-54.09684
2018-04-05 15:20:00+00:00,317.0646,1.2,12.57,47.84626,-54.09684
2018-04-05 15:30:00+00:00,332.5963,1.23,12.49,47.84626,-54.09684
2018-04-05 15:40:00+00:00,323.833,1.25,12.57,47.84626,-54.09684
2018-04-05 15:50:00+00:00,309.2614,1.28,12.57,47.84626,-54.09684
2018-04-05 16:00:00+00:00,313.5646,1.29,12.49,47.84626,-54.09684
2018-04-05 16:10:00+00:00,321.483,1.29,12.49,47.84626,-54.09684
2018-04-05 16:20:00+00:00,314.8113,1.3,12.57,47.84626,-54.09684
2018-04-05 16:30:00+00:00,310.8831,1.29,12.57,47.84626,-54.09684
2018-04-05 16:40:00+00:00,315.5613,1.3,12.57,47.84626,-54.09684
2018-04-05 16:50:00+00:00,306.6931,1.3,12.57,47.84626,-54.09684
2018-04-05 17:00:00+00:00,287.7064,1.29,12.49,47.84626,-54.09684
2018-04-05 17:10:00+00:00,296.103,1.29,12.49,47.84626,-54.09684
2018-04-05 17:20:00+00:00,301.203,1.3,12.57,47.84626,-54.09684
2018-04-05 17:30:00+00:00,285.758,1.29,12.57,47.84626,-54.09684
2018-04-05 17:40:00+00:00,270.818,1.28,12.57,47.84626,-54.09684
2018-04-05 17:50:00+00:00,274.1863,1.29,12.57,47.84626,-54.09684
2018-04-05 18:00:00+00:00,264.6581,1.3,12.49,47.84626,-54.09684
2018-04-05 18:10:00+00:00,248.4364,1.3,12.49,47.84626,-54.09684
2018-04-05 18:20:00+00:00,243.5764,1.3,12.57,47.84626,-54.09684
2018-04-05 18:30:00+00:00,244.1264,1.3,12.57,47.84626,-54.09684
2018-04-05 18:40:00+00:00,234.2198,1.3,12.57,47.84626,-54.09684
2018-04-05 18:50:00+00:00,226.1281,1.3,12.57,47.84626,-54.09684
2018-04-05 19:00:00+00:00,230.5414,1.3,12.49,47.84626,-54.09684
2018-04-05 19:10:00+00:00,222.6214,1.3,12.49,47.84626,-54.09684
2018-04-05 19:20:00+00:00,210.8998,1.35,12.57,47.84626,-54.09684
2018-04-05 19:30:00+00:00,208.9164,1.34,12.57,47.84626,-54.09684
2018-04-05 19:40:00+00:00,207.9264,1.36,12.57,47.84626,-54.09684
2018-04-05 19:50:00+00:00,199.5215,1.38,12.57,47.84626,-54.09684
2018-04-05 20:00:00+00:00,192.5681,1.4,12.49,47.84626,-54.09684
2018-04-05 20:10:00+00:00,195.5914,1.4,12.49,47.84626,-54.09684
2018-04-05 20:20:00+00:00,197.1248,1.4,12.57,47.84626,-54.09684
2018-04-05 20:30:00+00:00,193.5598,1.4,12.49,47.84626,-54.09684
2018-04-05 20:40:00+00:00,199.1865,1.4,12.57,47.84626,-54.09684
2018-04-05 20:50:00+00:00,202.1198,1.4,12.57,47.84626,-54.09684
2018-04-05 21:00:00+00:00,195.7298,1.43,12.49,47.84626,-54.09684
2018-04-05 21:10:00+00:00,199.2848,1.49,12.49,47.84626,-54.09684
2018-04-05 21:20:00+00:00,205.2964,1.45,12.57,47.84626,-54.09684
2018-04-05 21:30:00+00:00,202.0964,1.48,12.49,47.84626,-54.09684
2018-04-05 21:40:00+00:00,197.7165,1.49,12.57,47.84626,-54.09684
2018-04-05 21:50:00+00:00,207.7014,1.49,12.57,47.84626,-54.09684
2018-04-05 22:00:00+00:00,217.7014,1.49,12.49,47.84626,-54.09684
2018-04-05 22:10:00+00:00,215.4131,1.49,12.49,47.84626,-54.09684
2018-04-05 22:20:00+00:00,220.3631,1.49,12.57,47.84626,-54.09684
2018-04-05 22:30:00+00:00,228.3114,1.49,12.49,47.84626,-54.09684
2018-04-05 22:40:00+00:00,231.8948,1.5,12.57,47.84626,-54.09684
2018-04-05 22:50:00+00:00,237.1248,1.5,12.57,47.84626,-54.09684
2018-04-05 23:00:00+00:00,242.4047,1.5,12.49,47.84626,-54.09684
2018-04-05 23:10:00+00:00,243.8098,1.5,12.49,47.84626,-54.09684
2018-04-05 23:20:00+00:00,247.9381,1.5,12.57,47.84626,-54.09684
2018-04-05 23:30:00+00:00,256.2747,1.5,12.49,47.84626,-54.09684
2018-04-05 23:40:00+00:00,261.4431,1.5,12.57,47.84626,-54.09684
2018-04-05 23:50:00+00:00,262.4948,1.5,12.57,47.84626,-54.09684
